Time,TemperatureF,DewpointF,PressureIn,WindDirection,WindDirectionDegrees,WindSpeedMPH,WindSpeedGustMPH,Humidity,HourlyPrecipIn,Conditions,Clouds,dailyrainin,SoftwareType,DateUTC
2013-02-27 00:02:00,40.2,32.9,29.85,WSW,244,5.0,12.0,75,0.00,,,0.00,VWS V14.01,2013-02-27 06:02:00,
2013-02-27 00:07:00,40.1,33.2,29.85,West,259,6.0,12.0,76,0.00,,,0.00,VWS V14.01,2013-02-27 06:07:00,
2013-02-27 00:12:00,40.2,32.9,29.86,West,269,4.0,12.0,75,0.00,,,0.00,VWS V14.01,2013-02-27 06:12:00,
2013-02-27 00:17:00,40.2,33.2,29.86,SW,236,3.0,12.0,76,0.00,,,0.00,VWS V14.01,2013-02-27 06:17:00,
2013-02-27 00:23:00,40.1,33.2,29.86,WSW,254,5.0,12.0,76,0.00,,,0.00,VWS V14.01,2013-02-27 06:23:00,
2013-02-27 00:28:00,40.1,33.2,29.86,West,271,10.0,12.0,76,0.00,,,0.00,VWS V14.01,2013-02-27 06:28:00,
2013-02-27 00:33:00,40.1,33.2,29.86,WSW,250,10.0,10.0,76,0.00,,,0.00,VWS V14.01,2013-02-27 06:33:00,
2013-02-27 00:38:00,40.2,33.2,29.87,West,259,4.0,11.0,76,0.00,,,0.00,VWS V14.01,2013-02-27 06:38:00,
2013-02-27 00:43:00,40.1,33.2,29.86,West,264,3.0,11.0,76,0.00,,,0.00,VWS V14.01,2013-02-27 06:43:00,
2013-02-27 00:48:00,40.1,33.2,29.86,WSW,239,3.0,11.0,76,0.00,,,0.00,VWS V14.01,2013-02-27 06:48:00,
2013-02-27 00:53:00,40.0,33.4,29.86,SW,225,5.0,11.0,77,0.00,,,0.00,VWS V14.01,2013-02-27 06:53:00,
2013-02-27 00:58:00,40.1,33.2,29.86,SW,222,5.0,11.0,76,0.00,,,0.00,VWS V14.01,2013-02-27 06:58:00,
2013-02-27 01:03:00,40.1,33.2,29.86,WSW,246,6.0,11.0,76,0.00,,,0.00,VWS V14.01,2013-02-27 07:03:00,
2013-02-27 01:09:00,40.1,33.2,29.87,WSW,253,4.0,11.0,76,0.00,,,0.00,VWS V14.01,2013-02-27 07:09:00,
2013-02-27 01:14:00,40.0,33.1,29.87,SW,226,4.0,14.0,76,0.00,,,0.00,VWS V14.01,2013-02-27 07:14:00,
2013-02-27 01:19:00,40.0,33.1,29.87,West,272,9.0,14.0,76,0.00,,,0.00,VWS V14.01,2013-02-27 07:19:00,
2013-02-27 01:24:00,40.0,33.1,29.87,West,259,6.0,14.0,76,0.00,,,0.00,VWS V14.01,2013-02-27 07:24:00,
2013-02-27 01:29:00,40.0,33.1,29.87,WSW,240,10.0,11.0,76,0.00,,,0.00,VWS V14.01,2013-02-27 07:29:00,
2013-02-27 01:34:00,40.0,33.4,29.87,West,259,10.0,14.0,77,0.00,,,0.00,VWS V14.01,2013-02-27 07:34:00,
2013-02-27 01:39:00,40.0,33.1,29.87,WNW,294,14.0,16.0,76,0.00,,,0.00,VWS V14.01,2013-02-27 07:39:00,
2013-02-27 01:44:00,40.0,33.1,29.87,West,273,5.0,19.0,76,0.00,,,0.00,VWS V14.01,2013-02-27 07:44:00,
2013-02-27 01:50:00,40.0,33.4,29.87,WSW,248,4.0,19.0,77,0.00,,,0.00,VWS V14.01,2013-02-27 07:50:00,
2013-02-27 01:55:00,40.0,33.4,29.87,WSW,248,5.0,19.0,77,0.00,,,0.00,VWS V14.01,2013-02-27 07:55:00,
2013-02-27 02:00:00,39.9,33.3,29.87,West,262,6.0,12.0,77,0.00,,,0.00,VWS V14.01,2013-02-27 08:00:00,
2013-02-27 02:05:00,39.9,33.3,29.87,West,263,10.0,14.0,77,0.00,,,0.00,VWS V14.01,2013-02-27 08:05:00,
2013-02-27 02:10:00,39.9,33.3,29.87,West,259,9.0,14.0,77,0.00,,,0.00,VWS V14.01,2013-02-27 08:10:00,
2013-02-27 02:15:00,39.9,33.3,29.87,WSW,257,10.0,15.0,77,0.00,,,0.00,VWS V14.01,2013-02-27 08:15:00,
2013-02-27 02:20:00,39.8,32.9,29.87,WSW,252,9.0,15.0,76,0.00,,,0.00,VWS V14.01,2013-02-27 08:20:00,
2013-02-27 02:25:00,39.8,32.9,29.87,WNW,283,5.0,15.0,76,0.00,,,0.00,VWS V14.01,2013-02-27 08:25:00,
2013-02-27 02:31:00,39.7,33.1,29.87,West,273,6.0,10.0,77,0.00,,,0.00,VWS V14.01,2013-02-27 08:31:00,
2013-02-27 02:36:00,39.7,33.1,29.88,WSW,248,9.0,12.0,77,0.00,,,0.00,VWS V14.01,2013-02-27 08:36:00,
2013-02-27 02:41:00,39.7,33.1,29.88,WNW,285,10.0,13.0,77,0.00,,,0.00,VWS V14.01,2013-02-27 08:41:00,
2013-02-27 02:46:00,39.6,32.7,29.87,WSW,255,9.0,13.0,76,0.00,,,0.00,VWS V14.01,2013-02-27 08:46:00,
2013-02-27 02:51:00,39.6,32.7,29.88,West,278,7.0,19.0,76,0.00,,,0.00,VWS V14.01,2013-02-27 08:51:00,
2013-02-27 02:56:00,39.6,32.3,29.88,WNW,284,11.0,19.0,75,0.00,,,0.00,VWS V14.01,2013-02-27 08:56:00,
2013-02-27 03:01:00,39.6,32.7,29.88,West,271,7.0,14.0,76,0.00,,,0.00,VWS V14.01,2013-02-27 09:01:00,
2013-02-27 03:07:00,39.5,32.2,29.88,West,265,8.0,15.0,75,0.00,,,0.00,VWS V14.01,2013-02-27 09:07:00,
2013-02-27 03:12:00,39.5,32.2,29.88,West,276,9.0,15.0,75,0.00,,,0.00,VWS V14.01,2013-02-27 09:12:00,
2013-02-27 03:17:00,39.4,32.2,29.88,WSW,250,12.0,15.0,75,0.00,,,0.00,VWS V14.01,2013-02-27 09:17:00,
2013-02-27 03:22:00,39.4,32.5,29.89,West,277,13.0,15.0,76,0.00,,,0.00,VWS V14.01,2013-02-27 09:22:00,
2013-02-27 03:27:00,39.3,32.4,29.88,West,275,9.0,15.0,76,0.00,,,0.00,VWS V14.01,2013-02-27 09:27:00,
2013-02-27 03:32:00,39.2,32.3,29.88,West,271,6.0,12.0,76,0.00,,,0.00,VWS V14.01,2013-02-27 09:32:00,
2013-02-27 03:37:00,39.2,32.3,29.88,West,260,5.0,12.0,76,0.00,,,0.00,VWS V14.01,2013-02-27 09:37:00,
2013-02-27 03:42:00,39.2,32.3,29.89,WSW,247,4.0,14.0,76,0.00,,,0.00,VWS V14.01,2013-02-27 09:42:00,
2013-02-27 03:47:00,39.2,32.3,29.88,West,280,8.0,14.0,76,0.00,,,0.00,VWS V14.01,2013-02-27 09:47:00,
2013-02-27 03:53:00,39.2,32.0,29.88,West,262,5.0,18.0,75,0.00,,,0.00,VWS V14.01,2013-02-27 09:53:00,
2013-02-27 03:57:00,39.2,32.0,29.88,SW,215,9.0,18.0,75,0.00,,,0.00,VWS V14.01,2013-02-27 09:57:00,
2013-02-27 04:03:00,39.2,32.0,29.88,West,276,10.0,17.0,75,0.00,,,0.00,VWS V14.01,2013-02-27 10:03:00,
2013-02-27 04:08:00,39.1,31.9,29.88,WNW,289,8.0,17.0,75,0.00,,,0.00,VWS V14.01,2013-02-27 10:08:00,
2013-02-27 04:13:00,39.0,31.8,29.88,West,271,11.0,18.0,75,0.00,,,0.00,VWS V14.01,2013-02-27 10:13:00,
2013-02-27 04:18:00,39.0,31.8,29.89,West,281,7.0,18.0,75,0.00,,,0.00,VWS V14.01,2013-02-27 10:18:00,
2013-02-27 04:23:00,39.0,31.8,29.89,West,279,13.0,18.0,75,0.00,,,0.00,VWS V14.01,2013-02-27 10:23:00,
2013-02-27 04:28:00,38.9,31.7,29.89,West,269,6.0,18.0,75,0.00,,,0.00,VWS V14.01,2013-02-27 10:28:00,
2013-02-27 04:33:00,38.8,31.2,29.89,West,277,10.0,11.0,74,0.00,,,0.00,VWS V14.01,2013-02-27 10:33:00,
2013-02-27 04:38:00,38.7,31.1,29.89,West,267,11.0,15.0,74,0.00,,,0.00,VWS V14.01,2013-02-27 10:38:00,
2013-02-27 04:44:00,38.6,30.7,29.89,West,267,5.0,19.0,73,0.00,,,0.00,VWS V14.01,2013-02-27 10:44:00,
2013-02-27 04:49:00,38.4,30.9,29.89,West,264,10.0,19.0,74,0.00,,,0.00,VWS V14.01,2013-02-27 10:49:00,
2013-02-27 04:54:00,38.3,30.4,29.89,WSW,257,13.0,19.0,73,0.00,,,0.00,VWS V14.01,2013-02-27 10:54:00,
2013-02-27 04:59:00,38.3,30.4,29.89,WNW,291,11.0,13.0,73,0.00,,,0.00,VWS V14.01,2013-02-27 10:59:00,
2013-02-27 05:04:00,38.2,30.3,29.89,WSW,254,8.0,14.0,73,0.00,,,0.00,VWS V14.01,2013-02-27 11:04:00,
2013-02-27 05:09:00,38.1,30.6,29.89,WNW,290,11.0,14.0,74,0.00,,,0.00,VWS V14.01,2013-02-27 11:09:00,
2013-02-27 05:14:00,37.9,30.4,29.89,West,271,5.0,14.0,74,0.00,,,0.00,VWS V14.01,2013-02-27 11:14:00,
2013-02-27 05:19:00,37.7,30.5,29.90,WSW,257,8.0,14.0,75,0.00,,,0.00,VWS V14.01,2013-02-27 11:19:00,
2013-02-27 05:24:00,37.6,30.4,29.90,West,269,3.0,14.0,75,0.00,,,0.00,VWS V14.01,2013-02-27 11:24:00,
2013-02-27 05:29:00,37.5,30.3,29.89,WSW,244,6.0,6.0,75,0.00,,,0.00,VWS V14.01,2013-02-27 11:29:00,
2013-02-27 05:34:00,37.3,30.4,29.90,WNW,284,4.0,7.0,76,0.00,,,0.00,VWS V14.01,2013-02-27 11:34:00,
2013-02-27 05:40:00,37.2,30.4,29.90,West,271,4.0,10.0,76,0.00,,,0.00,VWS V14.01,2013-02-27 11:40:00,
2013-02-27 05:45:00,37.0,30.1,29.90,SW,231,5.0,10.0,76,0.00,,,0.00,VWS V14.01,2013-02-27 11:45:00,
2013-02-27 05:50:00,36.9,30.4,29.90,West,272,6.0,10.0,77,0.00,,,0.00,VWS V14.01,2013-02-27 11:50:00,
2013-02-27 05:55:00,36.8,30.3,29.90,WSW,238,5.0,10.0,77,0.00,,,0.00,VWS V14.01,2013-02-27 11:55:00,
2013-02-27 06:00:00,36.8,30.3,29.90,West,263,4.0,6.0,77,0.00,,,0.00,VWS V14.01,2013-02-27 12:00:00,
2013-02-27 06:05:00,36.7,30.5,29.90,WSW,239,5.0,8.0,78,0.00,,,0.00,VWS V14.01,2013-02-27 12:05:00,
2013-02-27 06:10:00,36.6,30.4,29.91,West,261,5.0,8.0,78,0.00,,,0.00,VWS V14.01,2013-02-27 12:10:00,
2013-02-27 06:15:00,36.5,30.3,29.91,WSW,249,3.0,10.0,78,0.00,,,0.00,VWS V14.01,2013-02-27 12:15:00,
2013-02-27 06:20:00,36.4,30.5,29.91,WSW,256,2.0,10.0,79,0.00,,,0.00,VWS V14.01,2013-02-27 12:20:00,
2013-02-27 06:26:00,36.4,30.8,29.91,WSW,245,6.0,10.0,80,0.00,,,0.00,VWS V14.01,2013-02-27 12:26:00,
2013-02-27 06:31:00,36.4,30.8,29.91,WSW,253,6.0,12.0,80,0.00,,,0.00,VWS V14.01,2013-02-27 12:31:00,
2013-02-27 06:36:00,36.5,30.9,29.91,West,263,3.0,12.0,80,0.00,,,0.00,VWS V14.01,2013-02-27 12:36:00,
2013-02-27 06:41:00,36.5,30.9,29.92,WSW,238,6.0,12.0,80,0.00,,,0.00,VWS V14.01,2013-02-27 12:41:00,
2013-02-27 06:46:00,36.6,31.0,29.92,WSW,253,5.0,12.0,80,0.00,,,0.00,VWS V14.01,2013-02-27 12:46:00,
2013-02-27 06:52:00,36.6,31.0,29.92,West,270,4.0,12.0,80,0.00,,,0.00,VWS V14.01,2013-02-27 12:52:00,
2013-02-27 06:57:00,36.7,31.1,29.92,West,269,3.0,12.0,80,0.00,,,0.00,VWS V14.01,2013-02-27 12:57:00,
2013-02-27 07:02:00,36.7,31.1,29.92,West,271,0.0,7.0,80,0.00,,,0.00,VWS V14.01,2013-02-27 13:02:00,
2013-02-27 07:07:00,36.8,31.2,29.92,West,268,1.0,7.0,80,0.00,,,0.00,VWS V14.01,2013-02-27 13:07:00,
2013-02-27 07:12:00,36.9,31.3,29.93,West,270,5.0,7.0,80,0.00,,,0.00,VWS V14.01,2013-02-27 13:12:00,
2013-02-27 07:17:00,37.0,31.4,29.93,WSW,255,4.0,7.0,80,0.00,,,0.00,VWS V14.01,2013-02-27 13:17:00,
2013-02-27 07:22:00,37.1,31.8,29.93,WSW,258,3.0,9.0,81,0.00,,,0.00,VWS V14.01,2013-02-27 13:22:00,
2013-02-27 07:27:00,37.3,31.7,29.93,West,266,5.0,10.0,80,0.00,,,0.00,VWS V14.01,2013-02-27 13:27:00,
2013-02-27 07:33:00,37.5,31.9,29.93,WNW,285,4.0,12.0,80,0.00,,,0.00,VWS V14.01,2013-02-27 13:33:00,
2013-02-27 07:38:00,37.7,32.1,29.93,WSW,251,4.0,12.0,80,0.00,,,0.00,VWS V14.01,2013-02-27 13:38:00,
2013-02-27 07:43:00,37.8,32.2,29.93,West,275,5.0,12.0,80,0.00,,,0.00,VWS V14.01,2013-02-27 13:43:00,
2013-02-27 07:48:00,37.9,32.3,29.93,WNW,284,7.0,14.0,80,0.00,,,0.00,VWS V14.01,2013-02-27 13:48:00,
2013-02-27 07:53:00,38.1,32.5,29.94,West,261,7.0,14.0,80,0.00,,,0.00,VWS V14.01,2013-02-27 13:53:00,
2013-02-27 07:58:00,38.2,32.6,29.94,WNW,296,4.0,14.0,80,0.00,,,0.00,VWS V14.01,2013-02-27 13:58:00,
2013-02-27 08:03:00,38.3,32.4,29.93,West,265,4.0,12.0,79,0.00,,,0.00,VWS V14.01,2013-02-27 14:03:00,
2013-02-27 08:08:00,38.6,32.7,29.93,WNW,294,6.0,12.0,79,0.00,,,0.00,VWS V14.01,2013-02-27 14:08:00,
2013-02-27 08:13:00,38.8,32.5,29.93,WSW,254,11.0,13.0,78,0.00,,,0.00,VWS V14.01,2013-02-27 14:13:00,
2013-02-27 08:18:00,38.9,32.6,29.94,WSW,253,5.0,13.0,78,0.00,,,0.00,VWS V14.01,2013-02-27 14:18:00,
2013-02-27 08:23:00,39.0,32.7,29.94,WSW,253,6.0,15.0,78,0.00,,,0.00,VWS V14.01,2013-02-27 14:23:00,
2013-02-27 08:28:00,39.1,32.5,29.94,West,270,6.0,6.0,77,0.00,,,0.00,VWS V14.01,2013-02-27 14:28:00,
2013-02-27 08:34:00,39.4,32.8,29.95,WSW,237,4.0,15.0,77,0.00,,,0.00,VWS V14.01,2013-02-27 14:34:00,
2013-02-27 08:39:00,39.6,33.0,29.94,WNW,293,3.0,15.0,77,0.00,,,0.00,VWS V14.01,2013-02-27 14:39:00,
2013-02-27 08:44:00,39.9,33.0,29.94,West,272,3.0,15.0,76,0.00,,,0.00,VWS V14.01,2013-02-27 14:44:00,
2013-02-27 08:49:00,40.0,33.1,29.95,SSW,209,5.0,15.0,76,0.00,,,0.00,VWS V14.01,2013-02-27 14:49:00,
2013-02-27 08:54:00,40.2,32.9,29.94,WSW,248,6.0,15.0,75,0.00,,,0.00,VWS V14.01,2013-02-27 14:54:00,
2013-02-27 08:59:00,40.5,32.9,29.94,WNW,285,3.0,6.0,74,0.00,,,0.00,VWS V14.01,2013-02-27 14:59:00,
2013-02-27 09:04:00,41.0,33.7,29.94,WSW,246,6.0,10.0,75,0.00,,,0.00,VWS V14.01,2013-02-27 15:04:00,
2013-02-27 09:09:00,41.5,33.5,29.94,SW,232,5.0,10.0,73,0.00,,,0.00,VWS V14.01,2013-02-27 15:09:00,
2013-02-27 09:14:00,41.9,33.9,29.94,WSW,252,6.0,10.0,73,0.00,,,0.00,VWS V14.01,2013-02-27 15:14:00,
2013-02-27 09:19:00,42.3,34.3,29.94,West,276,5.0,10.0,73,0.00,,,0.00,VWS V14.01,2013-02-27 15:19:00,
2013-02-27 09:24:00,42.7,33.6,29.94,WNW,286,4.0,10.0,70,0.00,,,0.00,VWS V14.01,2013-02-27 15:24:00,
2013-02-27 09:29:00,43.0,33.5,29.94,West,270,9.0,9.0,69,0.00,,,0.00,VWS V14.01,2013-02-27 15:29:00,
2013-02-27 09:34:00,43.2,33.7,29.93,West,279,7.0,13.0,69,0.00,,,0.00,VWS V14.01,2013-02-27 15:34:00,
2013-02-27 09:39:00,43.4,33.9,29.93,West,280,5.0,13.0,69,0.00,,,0.00,VWS V14.01,2013-02-27 15:39:00,
2013-02-27 09:45:00,43.7,34.2,29.93,West,267,9.0,13.0,69,0.00,,,0.00,VWS V14.01,2013-02-27 15:45:00,
2013-02-27 09:50:00,44.0,34.1,29.93,NW,304,8.0,13.0,68,0.00,,,0.00,VWS V14.01,2013-02-27 15:50:00,
2013-02-27 09:55:00,44.6,34.7,29.93,WNW,291,6.0,13.0,68,0.00,,,0.00,VWS V14.01,2013-02-27 15:55:00,
2013-02-27 10:00:00,45.2,34.5,29.94,WSW,240,3.0,5.0,66,0.00,,,0.00,VWS V14.01,2013-02-27 16:00:00,
2013-02-27 10:05:00,45.7,35.4,29.94,West,265,7.0,11.0,67,0.00,,,0.00,VWS V14.01,2013-02-27 16:05:00,
2013-02-27 10:10:00,46.1,35.4,29.94,WSW,237,2.0,11.0,66,0.00,,,0.00,VWS V14.01,2013-02-27 16:10:00,
2013-02-27 10:15:00,46.6,35.1,29.94,SW,235,3.0,11.0,64,0.00,,,0.00,VWS V14.01,2013-02-27 16:15:00,
2013-02-27 10:20:00,46.8,34.9,29.94,WNW,284,6.0,12.0,63,0.00,,,0.00,VWS V14.01,2013-02-27 16:20:00,
2013-02-27 10:25:00,46.8,34.5,29.94,WSW,237,4.0,13.0,62,0.00,,,0.00,VWS V14.01,2013-02-27 16:25:00,
2013-02-27 10:30:00,46.9,35.0,29.94,WNW,291,2.0,5.0,63,0.00,,,0.00,VWS V14.01,2013-02-27 16:30:00,
2013-02-27 10:35:00,47.3,35.0,29.94,WNW,286,6.0,13.0,62,0.00,,,0.00,VWS V14.01,2013-02-27 16:35:00,
2013-02-27 10:41:00,47.5,35.1,29.94,WNW,287,5.0,13.0,62,0.00,,,0.00,VWS V14.01,2013-02-27 16:41:00,
2013-02-27 10:46:00,47.8,35.0,29.94,SSW,213,0.0,13.0,61,0.00,,,0.00,VWS V14.01,2013-02-27 16:46:00,
2013-02-27 10:51:00,48.3,35.1,29.94,SW,234,5.0,13.0,60,0.00,,,0.00,VWS V14.01,2013-02-27 16:51:00,
2013-02-27 10:56:00,48.6,34.9,29.94,West,281,5.0,13.0,59,0.00,,,0.00,VWS V14.01,2013-02-27 16:56:00,
2013-02-27 11:01:00,49.0,36.2,29.93,West,277,4.0,9.0,61,0.00,,,0.00,VWS V14.01,2013-02-27 17:01:00,
2013-02-27 11:06:00,49.5,35.3,29.94,WSW,246,2.0,9.0,58,0.00,,,0.00,VWS V14.01,2013-02-27 17:06:00,
2013-02-27 11:11:00,50.3,36.1,29.93,WNW,284,0.0,9.0,58,0.00,,,0.00,VWS V14.01,2013-02-27 17:11:00,
2013-02-27 11:16:00,50.9,35.8,29.93,SSW,199,1.0,10.0,56,0.00,,,0.00,VWS V14.01,2013-02-27 17:16:00,
2013-02-27 11:21:00,51.1,36.0,29.93,West,269,3.0,12.0,56,0.00,,,0.00,VWS V14.01,2013-02-27 17:21:00,
2013-02-27 11:26:00,51.1,35.5,29.93,South,184,4.0,14.0,55,0.00,,,0.00,VWS V14.01,2013-02-27 17:26:00,
2013-02-27 11:32:00,51.2,35.6,29.93,WSW,240,9.0,13.0,55,0.00,,,0.00,VWS V14.01,2013-02-27 17:32:00,
2013-02-27 11:37:00,51.2,34.7,29.92,West,267,7.0,13.0,53,0.00,,,0.00,VWS V14.01,2013-02-27 17:37:00,
2013-02-27 11:42:00,51.2,35.1,29.92,SW,235,3.0,14.0,54,0.00,,,0.00,VWS V14.01,2013-02-27 17:42:00,
2013-02-27 11:47:00,51.5,35.4,29.92,West,263,9.0,14.0,54,0.00,,,0.00,VWS V14.01,2013-02-27 17:47:00,
2013-02-27 11:52:00,52.1,35.0,29.91,West,263,9.0,14.0,52,0.00,,,0.00,VWS V14.01,2013-02-27 17:52:00,
2013-02-27 11:57:00,51.8,34.8,29.91,WSW,241,12.0,14.0,52,0.00,,,0.00,VWS V14.01,2013-02-27 17:57:00,
2013-02-27 12:02:00,52.5,35.4,29.91,SW,219,3.0,10.0,52,0.00,,,0.00,VWS V14.01,2013-02-27 18:02:00,
2013-02-27 12:07:00,53.0,35.9,29.91,WSW,250,12.0,12.0,52,0.00,,,0.00,VWS V14.01,2013-02-27 18:07:00,
2013-02-27 12:13:00,53.0,35.9,29.91,WSW,244,6.0,14.0,52,0.00,,,0.00,VWS V14.01,2013-02-27 18:13:00,
2013-02-27 12:18:00,53.4,36.2,29.91,WNW,288,5.0,14.0,52,0.00,,,0.00,VWS V14.01,2013-02-27 18:18:00,
2013-02-27 12:23:00,54.0,35.8,29.90,SW,235,2.0,14.0,50,0.00,,,0.00,VWS V14.01,2013-02-27 18:23:00,
2013-02-27 12:28:00,54.4,35.7,29.89,West,267,3.0,14.0,49,0.00,,,0.00,VWS V14.01,2013-02-27 18:28:00,
2013-02-27 12:33:00,55.0,36.2,29.89,West,264,10.0,15.0,49,0.00,,,0.00,VWS V14.01,2013-02-27 18:33:00,
2013-02-27 12:38:00,54.7,35.9,29.89,SW,223,11.0,15.0,49,0.00,,,0.00,VWS V14.01,2013-02-27 18:38:00,
2013-02-27 12:43:00,54.7,35.9,29.89,SW,225,6.0,15.0,49,0.00,,,0.00,VWS V14.01,2013-02-27 18:43:00,
2013-02-27 12:49:00,54.8,36.0,29.89,SSW,213,9.0,15.0,49,0.00,,,0.00,VWS V14.01,2013-02-27 18:49:00,
2013-02-27 12:54:00,55.4,35.0,29.89,SW,227,12.0,15.0,46,0.00,,,0.00,VWS V14.01,2013-02-27 18:54:00,
2013-02-27 12:59:00,55.0,35.2,29.89,WNW,284,10.0,18.0,47,0.00,,,0.00,VWS V14.01,2013-02-27 18:59:00,
2013-02-27 13:04:00,54.8,35.5,29.89,SSW,210,10.0,18.0,48,0.00,,,0.00,VWS V14.01,2013-02-27 19:04:00,
2013-02-27 13:09:00,54.6,34.8,29.89,WSW,256,13.0,21.0,47,0.00,,,0.00,VWS V14.01,2013-02-27 19:09:00,
2013-02-27 13:14:00,54.9,35.1,29.89,SW,233,13.0,21.0,47,0.00,,,0.00,VWS V14.01,2013-02-27 19:14:00,
2013-02-27 13:19:00,54.8,34.4,29.88,West,267,17.0,21.0,46,0.00,,,0.00,VWS V14.01,2013-02-27 19:19:00,
2013-02-27 13:24:00,54.6,34.2,29.88,WNW,284,10.0,21.0,46,0.00,,,0.00,VWS V14.01,2013-02-27 19:24:00,
2013-02-27 13:30:00,54.4,35.1,29.89,SW,235,10.0,15.0,48,0.00,,,0.00,VWS V14.01,2013-02-27 19:30:00,
2013-02-27 13:35:00,54.7,34.3,29.88,WSW,257,17.0,24.0,46,0.00,,,0.00,VWS V14.01,2013-02-27 19:35:00,
2013-02-27 13:40:00,54.3,34.5,29.88,West,265,14.0,24.0,47,0.00,,,0.00,VWS V14.01,2013-02-27 19:40:00,
2013-02-27 13:45:00,54.8,34.4,29.88,SW,236,17.0,24.0,46,0.00,,,0.00,VWS V14.01,2013-02-27 19:45:00,
2013-02-27 13:50:00,55.0,34.6,29.88,WSW,246,17.0,24.0,46,0.00,,,0.00,VWS V14.01,2013-02-27 19:50:00,
2013-02-27 13:55:00,54.8,34.4,29.88,WSW,250,11.0,24.0,46,0.00,,,0.00,VWS V14.01,2013-02-27 19:55:00,
2013-02-27 14:00:00,54.9,34.5,29.88,WNW,292,13.0,20.0,46,0.00,,,0.00,VWS V14.01,2013-02-27 20:00:00,
2013-02-27 14:05:00,55.2,35.3,29.88,WSW,249,16.0,20.0,47,0.00,,,0.00,VWS V14.01,2013-02-27 20:05:00,
2013-02-27 14:10:00,55.4,34.4,29.88,WSW,257,10.0,20.0,45,0.00,,,0.00,VWS V14.01,2013-02-27 20:10:00,
2013-02-27 14:16:00,55.4,35.0,29.88,West,276,16.0,22.0,46,0.00,,,0.00,VWS V14.01,2013-02-27 20:16:00,
2013-02-27 14:21:00,55.1,34.7,29.88,WSW,246,11.0,22.0,46,0.00,,,0.00,VWS V14.01,2013-02-27 20:21:00,
2013-02-27 14:26:00,55.6,34.6,29.88,WSW,258,9.0,22.0,45,0.00,,,0.00,VWS V14.01,2013-02-27 20:26:00,
2013-02-27 14:31:00,56.2,35.7,29.88,WNW,303,10.0,12.0,46,0.00,,,0.00,VWS V14.01,2013-02-27 20:31:00,
2013-02-27 14:36:00,56.1,35.1,29.87,SW,229,10.0,23.0,45,0.00,,,0.00,VWS V14.01,2013-02-27 20:36:00,
2013-02-27 14:41:00,56.2,35.7,29.87,SW,227,11.0,23.0,46,0.00,,,0.00,VWS V14.01,2013-02-27 20:41:00,
2013-02-27 14:46:00,56.1,35.6,29.87,WNW,290,9.0,23.0,46,0.00,,,0.00,VWS V14.01,2013-02-27 20:46:00,
2013-02-27 14:52:00,56.1,34.5,29.87,WSW,256,12.0,23.0,44,0.00,,,0.00,VWS V14.01,2013-02-27 20:52:00,
2013-02-27 14:57:00,55.7,34.7,29.87,WSW,242,13.0,23.0,45,0.00,,,0.00,VWS V14.01,2013-02-27 20:57:00,
2013-02-27 15:02:00,55.5,34.0,29.87,West,259,17.0,19.0,44,0.00,,,0.00,VWS V14.01,2013-02-27 21:02:00,
2013-02-27 15:07:00,55.3,34.3,29.87,SW,234,9.0,21.0,45,0.00,,,0.00,VWS V14.01,2013-02-27 21:07:00,
2013-02-27 15:12:00,55.5,33.4,29.87,WNW,284,12.0,21.0,43,0.00,,,0.00,VWS V14.01,2013-02-27 21:12:00,
2013-02-27 15:17:00,55.5,34.0,29.87,WSW,248,3.0,21.0,44,0.00,,,0.00,VWS V14.01,2013-02-27 21:17:00,
2013-02-27 15:22:00,56.0,35.0,29.87,WSW,246,11.0,21.0,45,0.00,,,0.00,VWS V14.01,2013-02-27 21:22:00,
2013-02-27 15:27:00,55.7,35.3,29.87,West,259,12.0,24.0,46,0.00,,,0.00,VWS V14.01,2013-02-27 21:27:00,
2013-02-27 15:33:00,55.5,34.5,29.87,WSW,257,7.0,16.0,45,0.00,,,0.00,VWS V14.01,2013-02-27 21:33:00,
2013-02-27 15:38:00,55.2,34.2,29.87,West,264,15.0,19.0,45,0.00,,,0.00,VWS V14.01,2013-02-27 21:38:00,
2013-02-27 15:43:00,55.0,34.1,29.87,West,273,12.0,19.0,45,0.00,,,0.00,VWS V14.01,2013-02-27 21:43:00,
2013-02-27 15:48:00,55.1,33.6,29.87,SW,235,4.0,19.0,44,0.00,,,0.00,VWS V14.01,2013-02-27 21:48:00,
2013-02-27 15:53:00,55.4,33.3,29.87,WNW,287,9.0,19.0,43,0.00,,,0.00,VWS V14.01,2013-02-27 21:53:00,
2013-02-27 15:58:00,55.4,32.7,29.86,WSW,254,18.0,20.0,42,0.00,,,0.00,VWS V14.01,2013-02-27 21:58:00,
2013-02-27 16:04:00,54.8,33.3,29.87,SW,230,10.0,19.0,44,0.00,,,0.00,VWS V14.01,2013-02-27 22:04:00,
2013-02-27 16:08:00,54.7,34.3,29.87,SW,219,13.0,19.0,46,0.00,,,0.00,VWS V14.01,2013-02-27 22:08:00,
2013-02-27 16:14:00,54.7,34.9,29.87,West,277,10.0,19.0,47,0.00,,,0.00,VWS V14.01,2013-02-27 22:14:00,
2013-02-27 16:19:00,54.8,33.9,29.87,WSW,244,16.0,19.0,45,0.00,,,0.00,VWS V14.01,2013-02-27 22:19:00,
2013-02-27 16:24:00,54.4,33.5,29.87,WSW,254,10.0,19.0,45,0.00,,,0.00,VWS V14.01,2013-02-27 22:24:00,
2013-02-27 16:29:00,54.3,33.4,29.88,West,262,7.0,12.0,45,0.00,,,0.00,VWS V14.01,2013-02-27 22:29:00,
2013-02-27 16:34:00,54.4,34.1,29.87,West,261,15.0,15.0,46,0.00,,,0.00,VWS V14.01,2013-02-27 22:34:00,
2013-02-27 16:39:00,54.1,33.2,29.87,WSW,255,14.0,17.0,45,0.00,,,0.00,VWS V14.01,2013-02-27 22:39:00,
2013-02-27 16:44:00,53.8,33.5,29.88,West,262,7.0,19.0,46,0.00,,,0.00,VWS V14.01,2013-02-27 22:44:00,
2013-02-27 16:49:00,53.7,34.0,29.88,WSW,257,7.0,19.0,47,0.00,,,0.00,VWS V14.01,2013-02-27 22:49:00,
2013-02-27 16:55:00,53.5,33.8,29.88,WSW,243,6.0,19.0,47,0.00,,,0.00,VWS V14.01,2013-02-27 22:55:00,
2013-02-27 17:00:00,53.2,34.0,29.88,WSW,247,10.0,12.0,48,0.00,,,0.00,VWS V14.01,2013-02-27 23:00:00,
2013-02-27 17:05:00,52.8,33.7,29.88,WSW,252,7.0,17.0,48,0.00,,,0.00,VWS V14.01,2013-02-27 23:05:00,
2013-02-27 17:10:00,52.5,33.9,29.88,WSW,242,7.0,17.0,49,0.00,,,0.00,VWS V14.01,2013-02-27 23:10:00,
2013-02-27 17:15:00,52.2,34.1,29.89,West,272,11.0,20.0,50,0.00,,,0.00,VWS V14.01,2013-02-27 23:15:00,
2013-02-27 17:20:00,51.8,34.3,29.89,WSW,250,8.0,20.0,51,0.00,,,0.00,VWS V14.01,2013-02-27 23:20:00,
2013-02-27 17:25:00,51.6,34.6,29.89,WSW,244,4.0,20.0,52,0.00,,,0.00,VWS V14.01,2013-02-27 23:25:00,
2013-02-27 17:31:00,51.4,34.4,29.90,WSW,246,9.0,9.0,52,0.00,,,0.00,VWS V14.01,2013-02-27 23:31:00,
2013-02-27 17:36:00,51.3,34.3,29.90,WSW,238,5.0,12.0,52,0.00,,,0.00,VWS V14.01,2013-02-27 23:36:00,
2013-02-27 17:41:00,51.3,34.3,29.90,West,271,9.0,12.0,52,0.00,,,0.00,VWS V14.01,2013-02-27 23:41:00,
2013-02-27 17:46:00,51.4,34.4,29.90,WSW,252,4.0,13.0,52,0.00,,,0.00,VWS V14.01,2013-02-27 23:46:00,
2013-02-27 17:51:00,51.3,34.3,29.90,West,264,5.0,13.0,52,0.00,,,0.00,VWS V14.01,2013-02-27 23:51:00,
2013-02-27 17:56:00,51.1,34.1,29.90,WSW,248,3.0,13.0,52,0.00,,,0.00,VWS V14.01,2013-02-27 23:56:00,
2013-02-27 18:01:00,51.0,34.5,29.90,SW,230,3.0,12.0,53,0.00,,,0.00,VWS V14.01,2013-02-28 00:01:00,
2013-02-27 18:07:00,50.9,34.4,29.90,West,273,7.0,12.0,53,0.00,,,0.00,VWS V14.01,2013-02-28 00:07:00,
2013-02-27 18:12:00,50.8,34.8,29.91,WSW,251,6.0,12.0,54,0.00,,,0.00,VWS V14.01,2013-02-28 00:12:00,
2013-02-27 18:17:00,50.7,34.7,29.91,West,261,5.0,12.0,54,0.00,,,0.00,VWS V14.01,2013-02-28 00:17:00,
2013-02-27 18:22:00,50.7,34.7,29.91,West,262,5.0,12.0,54,0.00,,,0.00,VWS V14.01,2013-02-28 00:22:00,
2013-02-27 18:27:00,50.6,34.6,29.90,WSW,253,6.0,12.0,54,0.00,,,0.00,VWS V14.01,2013-02-28 00:27:00,
2013-02-27 18:32:00,50.7,34.7,29.91,West,265,5.0,11.0,54,0.00,,,0.00,VWS V14.01,2013-02-28 00:32:00,
2013-02-27 18:37:00,50.7,34.7,29.90,WSW,253,5.0,11.0,54,0.00,,,0.00,VWS V14.01,2013-02-28 00:37:00,
2013-02-27 18:43:00,50.6,34.6,29.91,WSW,244,6.0,12.0,54,0.00,,,0.00,VWS V14.01,2013-02-28 00:43:00,
2013-02-27 18:48:00,50.6,34.6,29.91,WSW,247,10.0,13.0,54,0.00,,,0.00,VWS V14.01,2013-02-28 00:48:00,
2013-02-27 18:53:00,50.7,34.7,29.91,WSW,239,7.0,13.0,54,0.00,,,0.00,VWS V14.01,2013-02-28 00:53:00,
2013-02-27 18:58:00,50.6,34.6,29.91,WSW,258,4.0,13.0,54,0.00,,,0.00,VWS V14.01,2013-02-28 00:58:00,
2013-02-27 19:03:00,50.5,34.5,29.91,West,259,6.0,13.0,54,0.00,,,0.00,VWS V14.01,2013-02-28 01:03:00,
2013-02-27 19:08:00,50.3,34.3,29.91,West,280,5.0,13.0,54,0.00,,,0.00,VWS V14.01,2013-02-28 01:08:00,
2013-02-27 19:13:00,50.1,34.6,29.92,WNW,287,7.0,13.0,55,0.00,,,0.00,VWS V14.01,2013-02-28 01:13:00,
2013-02-27 19:19:00,50.0,34.5,29.91,WSW,244,9.0,13.0,55,0.00,,,0.00,VWS V14.01,2013-02-28 01:19:00,
2013-02-27 19:24:00,49.9,34.8,29.92,WNW,291,11.0,13.0,56,0.00,,,0.00,VWS V14.01,2013-02-28 01:24:00,
2013-02-27 19:29:00,49.9,34.4,29.92,WSW,246,10.0,10.0,55,0.00,,,0.00,VWS V14.01,2013-02-28 01:29:00,
2013-02-27 19:34:00,49.9,34.4,29.91,WSW,253,12.0,20.0,55,0.00,,,0.00,VWS V14.01,2013-02-28 01:34:00,
2013-02-27 19:39:00,49.9,34.4,29.92,WSW,254,15.0,20.0,55,0.00,,,0.00,VWS V14.01,2013-02-28 01:39:00,
2013-02-27 19:44:00,49.7,34.2,29.92,West,281,12.0,20.0,55,0.00,,,0.00,VWS V14.01,2013-02-28 01:44:00,
2013-02-27 19:49:00,49.4,34.4,29.92,WNW,285,12.0,20.0,56,0.00,,,0.00,VWS V14.01,2013-02-28 01:49:00,
2013-02-27 19:54:00,49.2,34.2,29.93,WNW,286,12.0,20.0,56,0.00,,,0.00,VWS V14.01,2013-02-28 01:54:00,
2013-02-27 20:00:00,49.1,34.5,29.92,WSW,254,9.0,16.0,57,0.00,,,0.00,VWS V14.01,2013-02-28 02:00:00,
2013-02-27 20:05:00,48.8,34.3,29.92,WNW,290,21.0,21.0,57,0.00,,,0.00,VWS V14.01,2013-02-28 02:05:00,
2013-02-27 20:10:00,48.6,34.1,29.92,WNW,289,16.0,29.0,57,0.00,,,0.00,VWS V14.01,2013-02-28 02:10:00,
2013-02-27 20:15:00,48.5,34.4,29.93,West,267,17.0,29.0,58,0.00,,,0.00,VWS V14.01,2013-02-28 02:15:00,
2013-02-27 20:20:00,48.3,34.2,29.93,West,281,21.0,29.0,58,0.00,,,0.00,VWS V14.01,2013-02-28 02:20:00,
2013-02-27 20:25:00,48.0,34.4,29.93,WSW,240,19.0,29.0,59,0.00,,,0.00,VWS V14.01,2013-02-28 02:25:00,
2013-02-27 20:30:00,47.7,34.5,29.94,West,272,12.0,16.0,60,0.00,,,0.00,VWS V14.01,2013-02-28 02:30:00,
2013-02-27 20:35:00,47.2,34.5,29.94,West,276,14.0,16.0,61,0.00,,,0.00,VWS V14.01,2013-02-28 02:35:00,
2013-02-27 20:41:00,46.6,34.7,29.95,West,265,10.0,19.0,63,0.00,,,0.00,VWS V14.01,2013-02-28 02:41:00,
2013-02-27 20:46:00,46.0,34.5,29.95,WSW,254,11.0,19.0,64,0.00,,,0.00,VWS V14.01,2013-02-28 02:46:00,
2013-02-27 20:51:00,45.6,34.1,29.95,West,280,12.0,19.0,64,0.00,,,0.00,VWS V14.01,2013-02-28 02:51:00,
2013-02-27 20:56:00,45.3,34.2,29.95,West,277,9.0,19.0,65,0.00,,,0.00,VWS V14.01,2013-02-28 02:56:00,
2013-02-27 21:01:00,45.1,34.0,29.95,WSW,256,12.0,16.0,65,0.00,,,0.00,VWS V14.01,2013-02-28 03:01:00,
2013-02-27 21:06:00,44.9,33.5,29.95,West,267,12.0,21.0,64,0.00,,,0.00,VWS V14.01,2013-02-28 03:06:00,
2013-02-27 21:11:00,44.6,33.2,29.95,West,268,10.0,21.0,64,0.00,,,0.00,VWS V14.01,2013-02-28 03:11:00,
2013-02-27 21:16:00,44.4,32.6,29.96,West,276,10.0,21.0,63,0.00,,,0.00,VWS V14.01,2013-02-28 03:16:00,
2013-02-27 21:22:00,44.2,32.4,29.96,WNW,282,14.0,21.0,63,0.00,,,0.00,VWS V14.01,2013-02-28 03:22:00,
2013-02-27 21:27:00,44.0,32.2,29.96,West,273,12.0,21.0,63,0.00,,,0.00,VWS V14.01,2013-02-28 03:27:00,
2013-02-27 21:32:00,43.8,32.0,29.96,West,277,11.0,13.0,63,0.00,,,0.00,VWS V14.01,2013-02-28 03:32:00,
2013-02-27 21:37:00,43.7,32.3,29.96,WNW,294,6.0,16.0,64,0.00,,,0.00,VWS V14.01,2013-02-28 03:37:00,
2013-02-27 21:42:00,43.6,31.9,29.95,WSW,255,6.0,17.0,63,0.00,,,0.00,VWS V14.01,2013-02-28 03:42:00,
2013-02-27 21:47:00,43.5,31.8,29.95,West,279,7.0,17.0,63,0.00,,,0.00,VWS V14.01,2013-02-28 03:47:00,
2013-02-27 21:52:00,43.2,31.9,29.95,SSW,202,9.0,17.0,64,0.00,,,0.00,VWS V14.01,2013-02-28 03:52:00,
2013-02-27 21:58:00,43.2,31.5,29.95,West,269,11.0,17.0,63,0.00,,,0.00,VWS V14.01,2013-02-28 03:58:00,
2013-02-27 22:03:00,43.1,31.8,29.94,WSW,253,7.0,14.0,64,0.00,,,0.00,VWS V14.01,2013-02-28 04:03:00,
2013-02-27 22:08:00,42.9,31.6,29.94,West,269,8.0,18.0,64,0.00,,,0.00,VWS V14.01,2013-02-28 04:08:00,
2013-02-27 22:13:00,42.7,31.8,29.95,WSW,248,13.0,18.0,65,0.00,,,0.00,VWS V14.01,2013-02-28 04:13:00,
2013-02-27 22:18:00,42.7,31.8,29.94,West,265,11.0,20.0,65,0.00,,,0.00,VWS V14.01,2013-02-28 04:18:00,
2013-02-27 22:23:00,42.6,32.0,29.94,West,267,13.0,20.0,66,0.00,,,0.00,VWS V14.01,2013-02-28 04:23:00,
2013-02-27 22:28:00,42.6,32.0,29.95,WSW,245,7.0,20.0,66,0.00,,,0.00,VWS V14.01,2013-02-28 04:28:00,
2013-02-27 22:33:00,42.4,31.9,29.95,West,277,10.0,13.0,66,0.00,,,0.00,VWS V14.01,2013-02-28 04:33:00,
2013-02-27 22:39:00,42.2,32.0,29.95,West,272,9.0,15.0,67,0.00,,,0.00,VWS V14.01,2013-02-28 04:39:00,
2013-02-27 22:44:00,42.1,32.0,29.95,West,267,6.0,15.0,67,0.00,,,0.00,VWS V14.01,2013-02-28 04:44:00,
2013-02-27 22:49:00,41.9,32.1,29.95,WNW,286,9.0,15.0,68,0.00,,,0.00,VWS V14.01,2013-02-28 04:49:00,
2013-02-27 22:54:00,41.7,32.3,29.94,WNW,284,9.0,15.0,69,0.00,,,0.00,VWS V14.01,2013-02-28 04:54:00,
2013-02-27 22:59:00,41.5,32.1,29.94,West,265,8.0,10.0,69,0.00,,,0.00,VWS V14.01,2013-02-28 04:59:00,
2013-02-27 23:00:00,41.6,32.2,29.94,West,277,10.0,10.0,69,0.00,,,0.00,VWS V14.01,2013-02-28 05:00:00,
2013-02-27 23:06:00,41.4,32.4,29.94,WSW,254,5.0,13.0,70,0.00,,,0.00,VWS V14.01,2013-02-28 05:06:00,
2013-02-27 23:11:00,41.3,32.3,29.94,WSW,257,6.0,13.0,70,0.00,,,0.00,VWS V14.01,2013-02-28 05:11:00,
2013-02-27 23:16:00,41.2,32.2,29.94,WSW,257,10.0,13.0,70,0.00,,,0.00,VWS V14.01,2013-02-28 05:16:00,
2013-02-27 23:21:00,40.9,32.2,29.94,West,271,11.0,13.0,71,0.00,,,0.00,VWS V14.01,2013-02-28 05:21:00,
2013-02-27 23:26:00,40.9,32.2,29.94,West,280,9.0,13.0,71,0.00,,,0.00,VWS V14.01,2013-02-28 05:26:00,
2013-02-27 23:31:00,40.8,32.5,29.94,West,274,8.0,13.0,72,0.00,,,0.00,VWS V14.01,2013-02-28 05:31:00,
2013-02-27 23:36:00,40.8,32.5,29.94,WSW,254,10.0,13.0,72,0.00,,,0.00,VWS V14.01,2013-02-28 05:36:00,
2013-02-27 23:41:00,40.7,32.4,29.94,West,261,6.0,13.0,72,0.00,,,0.00,VWS V14.01,2013-02-28 05:41:00,
2013-02-27 23:47:00,40.6,32.6,29.94,West,261,6.0,13.0,73,0.00,,,0.00,VWS V14.01,2013-02-28 05:47:00,
2013-02-27 23:52:00,40.5,33.5,29.94,West,276,4.0,13.0,76,0.00,,,0.00,VWS V14.01,2013-02-28 05:52:00,
2013-02-27 23:57:00,40.4,32.1,29.93,WSW,248,9.0,13.0,72,0.00,,,0.00,VWS V14.01,2013-02-28 05:57:00,